Location: Wildlife_Club
(35.6000°N, 81.4330°W)
Time: 15:04:11
(UTC-04:00)

A-11 Canister half - Visible Passes

Search period start: 12 June 2021 00:00
Search period end: 22 June 2021 00:00
Orbit: 1513 x 1686 km, 47.2° (Epoch: 12 June)

Date Brightness Start Highest point End Pass type
(mag) Time Alt. Az. Time Alt. Az. Time Alt. Az.
13 Jun 10.2 05:32:58 10° SSW 05:41:50 37° SE 05:50:26 10° ENE visible
14 Jun 10.2 05:10:17 10° S 05:18:57 34° SE 05:27:24 10° ENE visible
15 Jun 10.3 04:47:36 10° S 04:56:05 32° SE 05:04:20 10° ENE visible
16 Jun 10.3 04:25:14 11° S 04:33:12 29° SE 04:41:16 10° ENE visible
17 Jun 10.3 04:03:42 14° S 04:10:20 27° SE 04:18:09 10° ENE visible
18 Jun 10.4 03:42:08 16° SSE 03:47:28 25° SE 03:55:01 10° ENE visible
19 Jun 10.4 03:20:31 18° SSE 03:24:36 23° SE 03:31:51 10° ENE visible
19 Jun 9.2 05:18:42 11° SW 05:28:37 79° SE 05:38:27 10° ENE visible
20 Jun 10.4 02:58:50 19° SSE 03:01:45 21° SE 03:08:37 10° E visible
20 Jun 9.2 04:57:02 15° SW 05:05:41 75° SE 05:15:30 10° ENE visible
21 Jun 10.4 02:37:06 19° SE 02:38:53 20° SE 02:45:22 10° E visible
21 Jun 9.2 04:35:18 21° SW 04:42:46 71° SE 04:52:33 10° ENE visible
